Flag for Colombia Weather past 2 weeks in Cali, Colombia

Now
64 °F

Fog.


Feels Like: 64 °F
Forecast: 69 / 84 °F
Wind: No wind

Location: Cali / Alfonso Bonillaaragon

Current Time: Mar 31, 2015 at 7:02:46 AM

Latest Report: Mar 31, 2015 at 6:00 AM


Visibility: 2 mi

Pressure: 30.03 "Hg

Humidity: 100%

Dew point: 64 °F

Location of CaliLocation

Historic Weather in Cali — Graph

°F

Cali temperature yesterday

Maximum temperature yesterday: 84 °F (at 1:00 PM)
Minimum temperature yesterday: 66 °F (at 12:00 AM)
Average temperature yesterday: 72 °F

Past Weeks' High & Low Weather Summary

 TemperatureHumidityPressure
High90 °F (Mar 22, 2:00 PM)100% (Mar 16, 7:00 AM)30.37 "Hg (Mar 16, 7:00 AM)
Low59 °F (Mar 21, 9:00 PM)41% (Mar 22, 2:00 PM)29.83 "Hg (Mar 17, 4:00 PM)
Average74 °F79%30.02 "Hg
* Reported Mar 16 6:00 AM — Mar 31 6:00 AM, Cali, Weather by CustomWeather, © 2015

Note: Actual official high and low records may vary slightly from our data, if they occured in-between our weather recording intervals... More about our weather records

Advertising

Cali weather history for previous 24 hours

 ConditionsComfort  
Time TempWeatherWind HumidityBarometerVisibility
6:00 AM
Tue, Mar 31
64 °FFog.No wind100%30.03 "Hg2 mi
5:00 AM64 °FPassing clouds.No wind94%30.00 "Hg5 mi
4:00 AM66 °FPassing clouds.No wind94%30.00 "Hg4 mi
3:00 AM66 °FPartly cloudy.No wind94%30.01 "Hg4 mi
2:00 AM64 °FPassing clouds.No wind94%30.03 "Hg5 mi
1:00 AM66 °FPassing clouds.No wind94%30.05 "Hg5 mi
12:00 AM66 °FPassing clouds.No wind94%30.06 "HgN/A
11:00 PM
Mon, Mar 30
68 °FPassing clouds.3 mph94%30.07 "HgN/A
10:00 PM68 °FPassing clouds.No wind94%30.06 "HgN/A
9:00 PM68 °FPassing clouds.3 mph94%30.04 "HgN/A
8:00 PM68 °FPassing clouds.3 mph94%30.01 "HgN/A
7:00 PM72 °FPassing clouds.3 mph83%29.98 "HgN/A
6:00 PM72 °FPartly sunny.5 mph88%29.97 "HgN/A
5:00 PM72 °FScattered showers. Broken clouds.5 mph88%29.97 "HgN/A
4:00 PM73 °FScattered showers. Broken clouds.9 mph78%29.96 "Hg6 mi
3:00 PM79 °FThunderstorms. Scattered clouds.12 mph65%29.96 "Hg5 mi
2:00 PM84 °FScattered clouds.5 mph55%29.96 "HgN/A
1:00 PM84 °FBroken clouds.5 mph51%29.99 "HgN/A
12:00 PM82 °FScattered clouds.5 mph58%30.05 "HgN/A
11:00 AM82 °FScattered clouds.5 mph58%30.08 "Hg6 mi
10:00 AM75 °FPartly sunny.No wind74%30.10 "Hg5 mi
9:00 AM75 °FPartly sunny.2 mph78%30.11 "Hg5 mi
8:00 AM72 °FScattered clouds.No wind83%30.10 "Hg6 mi
7:00 AM66 °FPartly sunny.3 mph100%30.09 "Hg6 mi
Weather by CustomWeather, © 2015

See weather overviewHow to use our weather pages